Location: A�n Tadlesse
(35.0351°N, 0.5353°E)
Time: 23:41:45
(UTC+00:00)

STARLINK-46 - Pass Details

Date: 21 October 2019
Orbit: 357 x 376 km, 53.0° (Epoch: 22 November)

Event Time Altitude Azimuth Distance (km) Brightness Sun altitude
Rises 18:11:24 0° 321° (NW) 2,213 7.2 -12.0°
Reaches altitude 10° 18:13:30 10° 329° (NNW) 1,367 6.0 -12.5°
Maximum altitude 18:16:24 40° 41° (NE) 564 3.3 -13.1°
Enters shadow 18:17:35 27° 91° (E) 757 3.7 -13.3°
